This demonstration page uses our WeatherBlox Daily Observations layout. Learn more.

Left ArrowRight Arrow

Hourly Observations for September 28, 2015

Temp ( °F °C ) Dew Point ( °F °C ) Humidity (%) Winds ( mph kmh ) Pressure ( in mb ) Visibility ( mi km ) Precip ( " mm )
12:53 am 00:53 Partly Cloudy 65 18.3 62 16.7 90 90 Calm 30.11 1020 10 16.0934 0 0
1:53 am 01:53 Mostly Cloudy 64 17.8 62 16.7 93 93 Calm 30.09 1019 10 16.0934 0 0
2:53 am 02:53 Mostly Cloudy 63 17.2 61 16.1 93 93 E 5 7 30.07 1018 10 16.0934 0 0
3:53 am 03:53 Cloudy 63 17.2 61 16.1 93 93 Calm 30.06 1018 10 16.0934 0 0
4:53 am 04:53 Clear 61 16.1 60 15.6 97 97 Calm 30.06 1018 10 16.0934 0 0
5:53 am 05:53 Clear 60 15.6 59 15 96 96 Calm 30.06 1018 10 16.0934 0 0
6:53 am 06:53 Clear 59 15 58 14.4 96 96 Calm 30.07 1018 9 14.48406 0 0
7:53 am 07:53 Sunny 60 15.6 59 15 96 96 Calm 30.09 1019 8 12.87472 0 0
8:53 am 08:53 Sunny 67 19.4 63 17.2 87 87 E 6 9 30.08 1019 10 16.0934 0 0
9:53 am 09:53 Sunny 70 21.1 64 17.8 82 82 Calm 30.09 1019 10 16.0934 0 0
10:53 am 10:53 Sunny 73 22.8 64 17.8 74 74 Calm 30.09 1019 10 16.0934 0 0
11:53 am 11:53 Sunny 78 25.6 64 17.8 62 62 Calm 30.07 1018 10 16.0934 0 0
12:53 pm 12:53 Sunny 80 26.7 65 18.3 60 60 Calm 30.05 1018 10 16.0934 0 0
1:53 pm 13:53 Mostly Sunny 81 27.2 64 17.8 57 57 Calm 30.03 1017 10 16.0934 0 0
2:53 pm 14:53 Sunny 84 28.9 64 17.8 51 51 E 6 9 30 1016 10 16.0934 0 0
3:53 pm 15:53 Mostly Sunny 83 28.3 63 17.2 51 51 Calm 29.98 1015 10 16.0934 0 0
4:53 pm 16:53 Mostly Sunny 84 28.9 62 16.7 48 48 E 3 6 29.97 1015 10 16.0934 0 0
5:53 pm 17:53 Mostly Sunny 81 27.2 65 18.3 58 58 Calm 29.96 1015 10 16.0934 0 0
6:53 pm 18:53 Sunny 76 24.4 67 19.4 74 74 Calm 29.96 1015 10 16.0934 0 0
7:53 pm 19:53 Clear 73 22.8 66 18.9 79 79 Calm 29.97 1015 10 16.0934 0 0
8:53 pm 20:53 Mostly Clear 71 21.7 66 18.9 84 84 Calm 29.98 1015 10 16.0934 0 0
9:53 pm 21:53 Cloudy 71 21.7 67 19.4 87 87 Calm 29.99 1016 10 16.0934 0 0
10:53 pm 22:53 Mostly Clear 70 21.1 66 18.9 87 87 Calm 29.98 1015 10 16.0934 0 0
11:53 pm 23:53 Mostly Cloudy with Light Rain 69 20.6 67 19.4 93 93 Calm 29.98 1015 10 16.0934 0 0.0254

Powered by AerisWeather